Regional Weather Roundup
Issued by NWS Newport/Morehead, NC

Current Version | Previous Version | Graphics & Text | Print | Product List | Glossary Off
Versions: 1 2 3 4 5 6 7 8 9 10 11 12 13 14 15 16 17 18 19 20 21 22 23 24 25 26 27 28 29 30 31 32 33 34 35 36 37 38 39 40 41 42 43 44 45 46 47 48 49 50

000
ASUS42 KMHX 280713
RWRMHX
WEATHER ROUNDUP FOR EASTERN NORTH CAROLINA
NATIONAL WEATHER SERVICE NEWPORT/MOREHEAD CITY NC
300 AM EDT WED JUN 28 2017

NOTE: "FAIR" INDICATES FEW OR NO CLOUDS BELOW 12,000 FEET
WITH NO SIGNIFICANT WEATHER AND/OR OBSTRUCTIONS TO VISIBILITY

NCZ015>017-031-032-045>047-102-103-280800-
NORTH COAST

CITY           SKY/WX    TMP DP  RH WIND       PRES   REMARKS
EDENTON        CLEAR     64  60  87 CALM      30.09S
ELIZABETH CITY CLEAR     64  63  96 CALM      30.08F
KITTY HAWK     SUNNY     69  64  83 CALM      30.07S
MANTEO         CLEAR     66  64  91 N5        30.08S

$$

NCZ045>047-081-094-103-104-280800-
CENTRAL COAST

CITY           SKY/WX    TMP DP  RH WIND       PRES   REMARKS
FRISCO         NOT AVBL

$$

NCZ095-097-098-100-101-280800-
SOUTHERN COAST

CITY           SKY/WX    TMP DP  RH WIND       PRES   REMARKS
BEAUFORT       CLEAR     70  61  73 N7        30.08S
CEDAR ISLAND   NOT AVBL
JACKSONVILLE   PTCLDY    69  62  78 N3        30.09R
PINEY ISLAND   SUNNY    N/A N/A N/A N9        30.07S
WILMINGTON     CLEAR     68  60  75 N6        30.09R


$$

NCZ011>013-027>030-043-044-078>080-089-090>093-098-280800-
COASTAL PLAIN

CITY           SKY/WX    TMP DP  RH WIND       PRES   REMARKS
AHOSKIE          N/A     56  56  97 CALM      30.09S
CLINTON        PTCLDY    64  61  89 CALM      30.11S
ELIZABETHTOWN  NOT AVBL
GOLDSBORO      PTCLDY    63  62  97 CALM      30.09S
GREENVILLE     CLEAR     61  61 100 CALM      30.11S
HAVELOCK       PTCLDY    72  58  61 N8        30.10R
KENANSVILLE    NOT AVBL
KINSTON        CLEAR     59  57  94 CALM      30.11S
NEW BERN       CLEAR     66  60  81 N3        30.11R
RICHLANDS      PTCLDY    64  60  87 N5        30.10S
ROCKY MOUNT    CLEAR     60  59  96 CALM      30.10S
WASHINGTON       N/A    N/A N/A N/A CALM      30.10R
WHITEVILLE     PTCLDY    66  61  83 CALM      30.09S

$$

AMZ130-135-150-152-154-156-158-170-250-252-270-ANZ085-086-088-633-658-670-280800-
MARINE OBSERVATIONS

STATION/POSITION TIME  TEMP    WIND        PRES    WAVE   SWELL
                       AIR SEA DIR/SP/G            HT/PER HT/PER
                 (UTC) (F)     (DEG/KT/KT) (MB)    (FT/S) (FT/S)
CHESAPEAKE LIGHT NOT AVBL
64 E VA BEACH    0650   74 75  340/  8/  8 1018.6    2/ 8   2/ 8
DUCK             0636          300/  4/  6   N/A
2 E DUCK         NOT AVBL
OREGON INLET     0636          330/  2/  3   N/A
13E OREGON INLT  0648      75                N/A     2/ 7   2/ 7
HATTERAS CG      0636           10/ 14/ 17   N/A
DIAMOND BUOY     0650   78 81  360/ 14/ 16 1017.7    2/ 8   2/ 8
CAPE LOOKOUT     0700   75     360/ 12/ 14 1018.1
BEAUFORT LAB     0636           20/  7/ 11   N/A
30 SE NEW RVR IN 0608   78 81   30/ 16/ 19 1018.2
30 SE NEW RVR IN 0643      81                N/A     2/ 3
27 SE WRIGHTSVLE 0608   79 81  340/ 12/ 17 1017.2
5 SE WRIGHTSVLE  0608   77 79   30/ 12/ 19 1018.3
225 S CAPE HAT   0650   79 80  220/  6/  8 1017.1    3/ 5   3/ 5
41 SE CHARLESTON 0650   80 81   20/  8/ 10 1017.5    2/ 7   2/ 7

$$



USA.gov is the U.S. government's official web portal to all federal, state and local government web resources and services.